Location: Chittendens Corners
(41.2320°N, 81.4940°W)
Time: 15:56:45
(UTC+00:00)

SMAP - Pass Details

Date: 29 October 2020
Orbit: 681 x 683 km, 98.1° (Epoch: 28 November)

Event Time Altitude Azimuth Distance (km) Brightness Sun altitude
Rises 22:54:38 0° 168° (SSE) 3,030 6.4 -6.3°
Reaches altitude 10° 22:56:52 10° 169° (S) 2,119 5.6 -6.7°
Maximum altitude 23:01:30 81° 257° (WSW) 697 3.2 -7.6°
Drops below altitude 10° 23:06:11 10° 345° (NNW) 2,135 5.7 -8.4°
Sets 23:08:26 0° 347° (NNW) 3,054 6.5 -8.9°
